CWLEESTJE Weather Reports


Display with metric or nautical units.
time (UTC)temp
F
wind
direction
speed
MPH
gust
MPH
rain 1hr
in
rain 24hr
in
rain mn
in
humidity
%
barometer
mb
20260902105537 68 252 9.0 15.0 0.00 0.00 0.00 79
20260902104550 67 268 10.0 15.0 0.00 0.00 0.00 80
20260902103534 67 278 10.0 14.0 0.00 0.00 0.00 80
20260902102607 67 212 11.0 15.0 0.00 0.00 0.00 80
20260902101551 67 246 10.0 14.0 0.00 0.00 0.00 80
20260902100523 67 259 10.0 15.0 0.00 0.00 0.00 81
20260902095523 67 254 11.0 15.0 0.00 0.00 0.00 80
20260902094537 68 253 10.0 15.0 0.00 0.00 0.00 80
20260902093542 68 258 10.0 15.0 0.00 0.00 0.00 81
20260902092554 68 288 11.0 16.0 0.00 0.00 0.00 80
20260902091547 68 282 9.0 13.0 0.00 0.00 0.00 82
20260902090550 67 238 8.0 13.0 0.00 0.00 0.00 83
20260902085559 67 242 9.0 13.0 0.00 0.00 0.00 83
20260902084522 67 253 10.0 13.0 0.00 0.00 0.00 83
20260902083536 66 252 8.0 12.0 0.00 0.00 0.00 85
20260902082547 65 271 8.0 13.0 0.00 0.00 0.00 86
20260902081532 65 257 9.0 11.0 0.00 0.00 0.00 86
20260902080545 64 263 8.0 12.0 0.00 0.00 0.00 88
20260902075549 63 253 9.0 12.0 0.00 0.00 0.00 88
20260902074537 62 238 9.0 11.0 0.00 0.00 0.00 90
20260902073541 62 246 8.0 11.0 0.00 0.00 0.00 90
20260902072535 61 258 7.0 11.0 0.00 0.00 0.00 91
20260902071539 60 250 7.0 10.0 0.00 0.00 0.00 91
20260902070523 59 213 7.0 10.0 0.00 0.00 0.00 91
20260902065535 59 234 7.0 11.0 0.00 0.00 0.00 92
20260902064547 58 213 7.0 12.0 0.00 0.00 0.00 92
20260902063532 58 220 8.0 11.0 0.00 0.00 0.00 92
20260902062531 57 215 7.0 10.0 0.00 0.00 0.00 92
20260902061604 57 202 7.0 10.0 0.00 0.00 0.00 92
20260902060536 57 213 8.0 11.0 0.00 0.00 0.00 92
20260902055549 57 221 7.0 10.0 0.00 0.00 0.00 92
20260902054533 57 231 8.0 10.0 0.00 0.00 0.00 92
20260902053537 56 212 8.0 11.0 0.00 0.00 0.00 92
20260902052530 56 215 8.0 11.0 0.00 0.00 0.00 92
20260902051531 56 213 7.0 10.0 0.00 0.00 0.00 92
20260902050543 56 198 7.0 10.0 0.00 0.00 0.00 91
20260902045555 55 220 5.0 7.0 0.00 0.00 0.00 91
20260902044537 55 230 5.0 10.0 0.00 0.00 0.00 91
20260902043531 55 209 7.0 9.0 0.00 0.00 0.00 91
20260902042536 55 206 7.0 9.0 0.00 0.00 0.00 91
20260902041528 55 207 6.0 9.0 0.00 0.00 0.00 91
20260902040529 55 215 7.0 9.0 0.00 0.00 0.00 91
20260902035601 55 234 7.0 10.0 0.00 0.00 0.00 91
20260902034525 55 205 7.0 9.0 0.00 0.00 0.00 91
20260902033537 56 211 6.0 9.0 0.00 0.00 0.00 91
20260902032522 56 221 7.0 9.0 0.00 0.00 0.00 91
20260902031536 56 213 6.0 8.0 0.00 0.00 0.00 90
20260902030540 56 205 6.0 7.0 0.00 0.00 0.00 90
20260902025532 56 205 6.0 8.0 0.00 0.00 0.00 90
20260902024534 56 209 6.0 8.0 0.00 0.00 0.00 90
20260902023546 56 219 6.0 9.0 0.00 0.00 0.00 90
20260902022530 56 213 6.0 7.0 0.00 0.00 0.00 90
20260902021543 56 214 6.0 8.0 0.00 0.00 0.00 90
20260902020527 56 215 5.0 7.0 0.00 0.00 0.00 90
20260902015540 56 235 5.0 7.0 0.00 0.00 0.00 89
20260902014523 56 209 4.0 7.0 0.00 0.00 0.00 89
20260902013551 56 220 5.0 7.0 0.00 0.00 0.00 90
20260902012535 56 205 6.0 9.0 0.00 0.00 0.00 90
20260902011549 57 219 7.0 9.0 0.00 0.00 0.00 90
20260902010600 56 207 7.0 8.0 0.00 0.00 0.00 90
20260902005523 56 205 6.0 8.0 0.00 0.00 0.00 89
20260902004537 56 207 6.0 7.0 0.00 0.00 0.00 89
20260902003540 56 213 7.0 8.0 0.00 0.00 0.00 89
20260902002529 56 211 4.0 7.0 0.00 0.00 0.00 89
20260902001531 57 212 6.0 7.0 0.00 0.00 0.00 89
20260902000544 57 213 6.0 8.0 0.00 0.00 0.00 89
20260901235528 57 217 6.0 9.0 0.00 0.00 0.00 89
20260901234601 56 236 6.0 7.0 0.00 0.00 0.00 89
20260901233524 56 235 5.0 6.0 0.00 0.00 0.00 89
20260901232536 56 219 4.0 6.0 0.00 0.00 0.00 89
20260901231536 55 214 4.0 5.0 0.00 0.00 0.00 88
20260901230530 56 213 3.0 5.0 0.00 0.00 0.00 88
20260901225534 56 213 5.0 5.0 0.00 0.00 0.00 88
20260901224548 56 213 5.0 5.0 0.00 0.00 0.00 88
20260901223532 56 214 4.0 5.0 0.00 0.00 0.00 87
20260901222545 56 215 4.0 5.0 0.00 0.00 0.00 87
20260901221528 56 215 5.0 6.0 0.00 0.00 0.00 87
20260901220532 57 218 6.0 6.0 0.00 0.00 0.00 87
20260901215525 57 221 5.0 7.0 0.00 0.00 0.00 87
20260901214526 57 223 5.0 8.0 0.00 0.00 0.00 87
20260901213538 57 229 6.0 7.0 0.00 0.00 0.00 87
20260901212613 57 226 5.0 7.0 0.00 0.00 0.00 86
20260901211556 57 226 6.0 7.0 0.00 0.00 0.00 86
20260901210528 57 223 6.0 7.0 0.00 0.00 0.00 86
20260901205531 58 247 6.0 7.0 0.00 0.00 0.00 86
20260901204523 58 255 6.0 7.0 0.00 0.00 0.00 85
20260901203523 59 271 5.0 6.0 0.00 0.00 0.00 85
20260901202535 59 272 3.0 7.0 0.00 0.00 0.00 85
20260901201538 59 273 5.0 6.0 0.00 0.00 0.00 85
20260901200531 59 277 5.0 7.0 0.00 0.00 0.00 85
20260901195535 59 328 4.0 5.0 0.00 0.00 0.00 85
20260901194549 59 328 2.0 4.0 0.00 0.00 0.00 85
20260901193532 59 328 4.0 5.0 0.00 0.00 0.00 84
20260901192541 60 328 3.0 4.0 0.00 0.00 0.00 83
20260901191525 60 328 3.0 6.0 0.00 0.00 0.00 82
20260901190528 61 329 0.0 2.0 0.00 0.00 0.00 81
20260901185541 61 329 0.0 2.0 0.00 0.00 0.00 79
20260901184523 62 329 0.0 2.0 0.00 0.00 0.00 78
20260901183538 63 329 0.0 1.0 0.00 0.00 0.00 77
20260901182541 63 329 0.0 1.0 0.00 0.00 0.00 76
20260901181534 64 329 0.0 2.0 0.00 0.00 0.00 75
20260901180603 65 329 0.0 4.0 0.00 0.00 0.00 74
20260901175525 65 329 2.0 4.0 0.00 0.00 0.00 74
20260901174528 66 329 3.0 8.0 0.00 0.00 0.00 73
20260901173601 67 342 5.0 9.0 0.00 0.00 0.00 72
20260901172533 67 334 5.0 9.0 0.00 0.00 0.00 71
20260901171538 68 329 6.0 10.0 0.00 0.00 0.00 70
20260901170530 68 323 5.0 11.0 0.00 0.00 0.00 71
20260901165531 68 322 6.0 10.0 0.00 0.00 0.00 70
20260901164544 70 324 4.0 8.0 0.00 0.00 0.00 69
20260901163548 71 304 8.0 12.0 0.00 0.00 0.00 67
20260901162541 71 315 7.0 11.0 0.00 0.00 0.00 67
20260901161525 71 284 7.0 15.0 0.00 0.00 0.00 65
20260901160538 71 284 6.0 15.0 0.00 0.00 0.00 64
20260901155553 72 267 12.0 18.0 0.00 0.00 0.00 60
20260901154535 71 272 9.0 13.0 0.00 0.00 0.00 65
20260901153535 71 269 8.0 14.0 0.00 0.00 0.00 65
20260901152547 71 273 10.0 15.0 0.00 0.00 0.00 65
20260901151559 71 275 7.0 11.0 0.00 0.00 0.00 66
20260901150552 72 298 8.0 13.0 0.00 0.00 0.00 65
20260901145536 72 254 9.0 15.0 0.00 0.00 0.00 64
20260901144539 73 279 7.0 13.0 0.00 0.00 0.00 65
20260901143532 73 279 8.0 13.0 0.00 0.00 0.00 65
20260901142533 73 298 8.0 11.0 0.00 0.00 0.00 67
20260901141545 72 287 8.0 14.0 0.00 0.00 0.00 66
20260901140549 72 258 6.0 12.0 0.00 0.00 0.00 67
20260901135541 72 325 7.0 12.0 0.00 0.00 0.00 68
20260901134525 71 285 7.0 10.0 0.00 0.00 0.00 70
20260901133539 71 317 7.0 11.0 0.00 0.00 0.00 68
20260901132524 71 348 6.0 10.0 0.00 0.00 0.00 71
20260901131554 71 275 7.0 13.0 0.00 0.00 0.00 70
20260901130545 71 289 8.0 14.0 0.00 0.00 0.00 71
20260901125530 71 335 8.0 12.0 0.00 0.00 0.00 70
20260901124544 71 318 8.0 12.0 0.00 0.00 0.00 69
20260901123527 70 335 10.0 13.0 0.00 0.00 0.00 71
20260901122531 70 325 5.0 11.0 0.00 0.00 0.00 70
20260901121604 70 336 7.0 11.0 0.00 0.00 0.00 72
20260901120533 70 304 8.0 13.0 0.00 0.00 0.00 72
20260901115537 69 321 7.0 14.0 0.00 0.00 0.00 72
20260901114551 70 322 6.0 11.0 0.00 0.00 0.00 72
20260901113535 70 350 7.0 11.0 0.00 0.00 0.00 73
20260901112548 70 278 9.0 15.0 0.00 0.00 0.00 73
20260901111532 69 316 10.0 16.0 0.00 0.00 0.00 74
20260901110547 70 301 10.0 14.0 0.00 0.00 0.00 72